Powrót do katalogu

COSMOS 2251 DEB

AktywnyLEO
NORAD 33766·DEBRIS·🇷🇺 Russia

Wystrzelony Jun 16, 1993 z Plesetsk Cosmodrome

Loading…

Następne Przeloty (najbliższe 24 godziny)

TLE

ŚwieżeSource: Space-Track

Epoka: Sep 14, 2026, 05:56 UTC

1 33766U 93036P   26257.24723450  .00000790  00000-0  27603-3 0  9992
2 33766  74.1886 354.3162 0061850 119.3826 241.3523 14.35681877916988

Śledź COSMOS 2251 DEB w czasie rzeczywistym z AllMySat

Download on the App Store